STARLINK-35365, 66186

Orbit data source: Space-Track

STARLINK-35365, 66186 is a payload satellite owned by SpaceX/Seattle (US) in LEO that was launched on Sun, 26 Oct 2025 UTC via an FALCON 9 launch vehicle from the Air Force Eastern Test Range (AFETR). Payload-class satellites include a variety of spacecraft equipped with specific instruments for various scientific and technological missions. These include communications satellites like Starlink; space stations such as the ISS; scientific satellites like the Hubble; Earth observation satellites from companies like Planet Labs, Umbra, and HawkEye 360; GPS; miniature CubeSats for education and research; and military/defense satellites.

Loading next visibility...
Identifier
66186, 2025-243K
Orbit
LEO
Country
Flag of USUS
Related business
Manufacturer
SpaceX/Seattle
Mission
Operational Commercial Communications
Bus & Motor
STARLINK V2MO, Unknown motor
Mass
575 kg wet, ~530 kg dry
Launch date (UTC)
2025-10-26 (8 months ago)
Launch vehicle
FALCON 9
Launch site
Air Force Eastern Test Range (AFETR)
Object type
Payload
Rocket body
Debris
Shape & HBR
Box + 2 Pan, 17.7 m
Radar Cross Section
36.964 m², Large (>1 m²)

Expand to show TLE details & history
Last TLE update: 1 day ago

TLE from 1 day ago
0 STARLINK-35365
1 66186U 25243K   26170.59705436  .00057165  00000-0  19212-2 0  9999
2 66186  53.1579 132.0886 0002705 208.5469 151.5384 15.30303177 36258
Epoch: 2026-06-19T14:19Z
TLE epoch observation values (Epoch: 2026-06-19T14:19:45.496Z)
Latitude
-0.00003°
Longitude
9.32526°
Altitude
477.436 km
Speed
7.627 km/s
True Right ascension
08h 48m 21s
True Declination
0° 00' 00"
Sunlit
Object was in daylight at epoch
Visualization orbit readout
Latitude
Unknown
Longitude
Unknown
Altitude
Unknown
Speed
Unknown
Apparent Right ascension
Unknown
Apparent Declination
Unknown
Sunlit
N/A
Visualization observer readout
Local Sidereal Time
07:23:42
Azimuth
Unknown
Elevation
Unknown
Doppler factor
Unknown
Orbital elements
Apogee altitude
477.018 km
Perigee altitude
473.31 km
Semi-major axis
6,853.301 km
Eccentricity
0.00027
Inclination
53.1579°
RAAN
132.0886°
Arg. of periapsis
208.5469°
True anomaly
151.55317°
Mean anomaly
151.5384°
Eccentric anomaly
151.54578°
Mean motion
3.82555 °/min
Orbital period
94.1 mins
BSTAR
0.0019212
Loading maneuver chart data...
Computing Atmospheric mass density...
Loading historical data...
Loading historical data...
Loading historical data...
Loading historical data...
Loading historical data...
Loading historical data...
Loading historical data...

Documentation

Showing up to 5 results
|